Retour au catalogue

FENGYUN 1C DEB

ActifLEO
NORAD 30161·DEBRIS·🇨🇳 China

Lancé May 10, 1999 depuis Taiyuan Satellite Launch Center

Loading…

Prochains Passages (prochaines 24 heures)

TLE

FraisSource: Space-Track

Époque: Sep 14, 2026, 11:21 UTC

1 30161U 99025TS  26257.47299558  .00000818  00000-0  97535-3 0  9996
2 30161 100.5181 265.5369 0325597 311.5289 216.8800 13.50476429962806

Suivez FENGYUN 1C DEB en temps réel avec AllMySat

Download on the App Store